SCP
0 0 0 0 0 0 0 0 0 0 0 0 0 0 0 0 0 0 0 1 1 1 1 1 0 0 0 0 0 0 0 0 -0 -0 -0 0 0 0 0 0 0 0 0 0
0 0 0 0 0 0 0 0 0 0 0 0 0 0 0 0 0 0 0 0 0 1 1 0 0 0 0 0 0 0 0 0 0 0 0 0 0 0 0 0 0 0 0 0
0 0 0 0 0 0 0 0 0 0 0 0 0 0 0 0 0 0 0 0 0 1 0 0 0 0 0 0 0 0 0 0 0 0 0 0 0 0 0 0 0 0 0 0
0 0 0 0 1 0 0 0 0 0 0 0 0 0 0 0 0 1 1 0 0 0 -0 -0 -0 0 0 0 0 0 0 0 0 0 -0 0 0 0 0 0 0 0 0 0
0 0 0 0 1 1 0 0 0 0 0 0 0 0 0 0 1 0 0 0 -0 -0 0 -0 0 0 0 0 0 0 0 0 -0 0 -0 -0 0 0 0 0 0 0 0 0
0 0 0 0 0 0 0 0 0 0 0 0 0 1 0 0 0 0 0 0 0 0 0 0 0 0 0 0 0 0 0 0 -0 -0 -0 -0 -0 -0 0 0 0 0 0 0
0 0 0 0 0 0 0 0 0 0 0 0 0 0 0 0 0 0 0 0 0 0 0 0 0 0 0 0 0 0 0 0 0 0 0 0 0 -0 0 0 0 -0 -0 -0
0 0 0 1 0 0 0 0 0 0 0 1 1 1 0 0 0 0 0 0 0 0 0 0 0 0 0 0 0 0 0 0 0 0 0 0 0 0 0 0 -0 -0 0 0
0 0 0 1 2 1 1 1 1 0 0 1 1 0 0 -0 0 0 0 0 0 0 0 0 0 0 0 0 0 0 0 0 0 0 0 0 0 0 0 0 0 0 0 0
0 1 1 2 1 1 2 2 1 0 0 0 1 0 0 -0 0 0 0 0 0 0 0 0 0 0 0 0 0 0 0 0 0 0 0 0 0 0 0 0 0 0 0 0
1 0 1 1 1 1 2 1 1 1 0 0 0 0 -0 -0 -0 0 0 0 0 0 0 0 0 0 0 0 0 0 0 0 0 0 0 0 0 0 0 0 0 0 0 0
1 0 1 1 1 1 1 1 1 1 0 0 -0 -0 -0 -0 -0 -0 0 0 0 0 0 0 0 0 0 0 0 0 0 0 0 0 0 0 0 0 0 0 0 0 0 0
1 0 0 0 0 1 1 1 1 0 0 0 0 0 0 0 0 -0 -0 0 0 0 0 0 0 0 0 0 0 0 0 0 0 0 0 0 0 0 0 0 0 0 0 0
0 0 1 0 0 0 1 0 0 0 0 0 0 0 0 0 0 -0 0 0 0 -0 0 -0 0 0 0 0 0 0 0 0 0 0 0 0 0 0 0 0 0 0 0 0
0 0 0 0 0 0 0 0 0 0 0 0 0 0 0 0 0 0 0 0 -0 -0 -0 -0 0 0 0 0 0 0 0 0 0 0 0 0 0 0 0 0 0 0 0 0
0 0 0 0 0 0 0 0 0 0 0 0 0 0 0 0 0 0 0 0 0 0 -0 0 0 0 0 0 0 0 0 0 0 0 0 0 0 0 0 0 0 0 0 0
0 0 0 0 0 0 0 0 0 0 0 0 0 0 0 0 0 0 0 0 0 0 0 0 0 0 0 0 0 0 0 0 0 0 0 0 0 0 0 0 0 0 0 0
0 0 0 0 0 0 0 0 0 0 0 0 0 0 0 0 0 0 0 0 0 0 0 0 0 0 0 0 0 0 0 0 0 0 0 0 0 0 0 0 0 0 0 0
0 0 0 0 0 0 0 0 0 0 0 0 0 0 0 0 0 0 0 0 0 0 0 0 0 0 0 0 0 0 0 0 0 0 0 0 0 0 0 0 0 0 0 0
0 0 0 0 0 0 0 0 0 0 0 0 0 0 0 0 0 0 0 0 0 0 0 0 0 0 0 0 0 0 0 0 0 0 0 0 0 0 0 0 0 0 0 0
0 0 0 0 0 0 0 0 0 0 0 0 0 0 0 0 0 0 0 0 0 0 0 0 0 0 0 0 0 0 0 0 0 0 0 0 0 0 0 0 0 0 0 0
0 0 0 0 0 0 0 0 0 0 0 0 0 0 0 0 0 0 0 0 0 0 0 0 0 0 0 0 0 0 0 0 0 0 0 0 0 0 0 0 0 0 0 0
0 0 0 0 0 0 0 0 0 0 0 0 0 0 0 0 0 0 0 0 0 0 0 0 0 0 0 0 0 0 0 0 0 0 0 0 0 0 0 0 0 0 0 0
0 0 0 0 0 0 0 0 0 0 0 0 0 0 0 0 0 0 0 0 0 0 0 0 0 0 0 0 0 0 0 0 0 0 0 0 0 0 0 0 0 0 0 0
0 0 0 0 0 0 0 0 0 0 0 0 0 0 0 0 0 0 0 0 0 0 0 0 0 0 0 0 0 0 0 0 0 0 0 0 0 0 0 0 0 0 0 0
0 0 0 -0 -0 0 -0 -0 0 0 0 0 0 0 0 0 0 0 0 0 0 0 0 0 0 0 0 0 0 0 0 0 0 0 0 0 0 0 0 0 0 0 0 0
0 0 0 0 0 0 0 0 0 0 0 -0 0 0 0 0 0 0 0 0 0 0 0 0 0 0 0 0 0 0 0 0 0 0 0 0 0 0 0 0 0 0 0 0
Wind_Speed_500mb
7 6 6 10 19 18 12 13 11 13 13 7 10 5 10 11 6 9 11 8 8 23 32 38 30 23 21 20 37 29 24 21 18 13 10 11 13 15 16 15 14 15 16 16
8 10 17 12 15 15 4 12 5 7 8 11 8 15 18 8 3 6 5 4 8 26 36 39 36 29 28 35 44 31 27 24 21 17 10 6 6 9 12 13 11 10 12 12
10 5 15 11 19 17 8 10 8 11 5 7 9 14 12 7 6 9 8 3 5 18 33 40 39 30 29 35 42 30 20 22 21 17 12 7 2 5 5 9 7 4 5 10
7 11 14 6 4 6 8 11 16 5 3 10 26 20 8 6 3 8 10 5 7 8 33 35 36 32 29 34 37 32 20 16 19 18 12 10 17 16 2 10 3 3 4 5
9 10 3 3 7 8 9 8 11 7 9 21 24 30 24 16 10 9 10 1 11 14 27 32 34 33 28 35 32 28 22 17 18 18 14 12 3 16 12 12 12 12 11 8
6 8 8 5 7 6 5 5 10 14 15 27 18 8 9 10 11 12 10 3 8 19 34 34 33 34 35 31 31 33 34 31 34 26 18 20 13 25 24 22 19 17 13 11
6 4 2 1 7 9 10 5 23 2 10 19 8 13 15 11 13 15 16 8 15 20 28 32 35 35 38 39 33 35 41 38 35 34 32 35 27 24 18 22 17 21 15 13
4 3 8 20 6 6 6 9 13 6 18 29 31 24 18 11 6 9 10 13 12 15 19 26 28 38 41 33 33 35 34 26 23 21 29 43 49 45 21 22 20 24 20 14
4 1 1 3 7 15 10 12 7 8 23 27 28 20 16 12 7 5 3 5 7 10 9 9 13 21 34 36 31 30 31 31 24 22 24 28 35 43 44 39 31 33 26 16
6 5 2 10 7 12 3 3 4 14 19 24 25 24 23 19 13 11 11 8 6 6 9 7 7 8 13 19 27 29 29 27 27 28 26 22 25 25 22 50 41 37 28 17
7 5 4 5 6 5 6 12 16 20 17 22 24 26 23 23 22 19 15 12 6 3 6 8 9 8 10 14 18 23 24 22 20 16 10 10 20 24 29 42 29 27 23 18
3 5 2 4 5 9 10 14 18 20 26 24 20 19 19 19 17 14 12 9 7 7 3 4 5 10 14 18 21 22 20 16 12 15 17 13 15 25 35 32 29 27 22 15
3 3 5 7 8 12 13 15 18 20 13 12 11 8 13 14 15 14 12 6 3 10 13 11 4 4 10 14 15 15 17 19 21 21 20 18 25 28 27 32 26 22 16 13
6 7 4 5 7 10 11 9 7 2 3 6 3 6 8 4 7 6 1 0 4 7 10 14 13 9 12 11 11 17 19 21 24 24 24 24 23 21 21 20 21 19 15 13
13 16 9 7 8 6 7 8 5 3 6 7 9 9 12 15 11 10 9 8 8 10 16 19 16 13 9 10 14 16 21 26 28 27 27 26 26 25 23 21 19 17 14 13
17 21 15 12 8 5 6 8 11 16 18 19 18 13 19 22 20 21 17 15 14 15 20 20 16 12 11 10 16 22 28 29 29 30 31 29 27 28 30 32 31 28 24 19
19 24 21 19 15 8 5 5 11 17 21 23 26 29 31 25 23 26 24 19 16 18 19 18 13 11 15 12 18 25 29 32 32 31 37 43 46 43 39 35 32 27 23 20
12 16 14 14 12 11 9 9 12 14 18 22 25 27 29 32 30 24 18 15 17 18 16 12 12 14 17 17 25 33 36 35 37 34 42 44 42 38 32 27 23 19 16 14
13 8 3 3 7 10 13 16 17 18 20 24 27 28 30 30 29 25 18 17 19 17 12 14 14 18 20 24 34 39 38 36 38 38 40 37 33 28 24 20 17 17 18 21
13 12 13 16 19 22 27 29 32 32 29 30 31 32 33 32 28 26 25 27 23 15 12 13 9 16 19 32 40 40 38 37 38 37 38 35 30 25 19 18 18 18 17 19
30 31 33 36 38 39 41 43 45 47 46 42 41 41 41 39 36 34 31 31 29 23 20 19 18 15 22 35 39 37 36 37 42 39 38 35 30 26 24 22 26 20 19 23
27 30 34 39 43 47 47 47 48 50 50 50 48 47 50 50 45 37 33 30 26 22 27 28 24 24 26 35 33 34 37 39 42 42 37 33 33 33 30 30 27 22 22 25
23 21 24 26 29 33 35 30 30 33 38 40 44 46 48 52 53 46 39 31 27 29 30 31 31 27 35 36 32 34 39 40 43 42 32 23 30 32 30 25 24 23 30 31
15 18 22 24 26 25 24 23 26 30 33 37 40 41 45 46 49 47 41 36 30 30 36 36 35 31 39 37 34 37 42 42 39 24 26 37 28 22 21 20 21 22 28 22
15 18 15 16 19 13 11 15 16 17 23 24 25 26 25 24 31 34 31 28 26 31 38 38 37 37 40 34 26 21 30 28 24 26 18 20 17 14 17 19 18 22 19 20
13 12 11 18 18 13 13 13 19 23 24 19 19 11 6 3 6 13 21 25 25 29 33 38 40 41 44 43 29 35 39 31 18 21 21 25 33 31 18 12 16 15 17 19
14 14 8 9 8 10 10 12 14 12 18 15 14 19 20 20 14 8 2 3 8 15 22 32 31 33 29 30 33 29 26 26 28 15 8 7 6 9 12 12 14 20 24 27
Wind_Direction_500mb
193 199 215 193 175 178 193 164 196 164 208 288 24 26 132 164 132 91 70 71 176 184 184 180 180 195 188 184 166 146 153 163 173 159 140 113 92 91 86 78 78 75 70 70
163 179 201 206 194 190 206 167 135 158 240 41 78 110 121 141 42 37 60 90 160 184 183 182 181 194 191 190 183 167 161 175 178 172 171 138 113 104 89 72 64 72 78 72
183 167 158 202 196 184 170 198 170 199 82 51 113 115 117 115 86 43 17 347 228 202 192 184 189 191 203 200 190 191 185 188 195 182 144 144 158 83 80 89 63 70 92 93
129 156 196 77 342 224 220 220 215 293 356 99 121 109 103 109 97 48 22 15 188 194 197 192 198 199 204 202 197 201 200 212 205 187 178 225 237 220 292 348 283 233 190 136
166 185 358 168 154 162 196 198 203 212 149 129 140 123 91 88 59 15 3 225 210 194 189 192 200 204 202 207 208 205 197 173 221 217 227 247 67 242 215 293 260 241 232 206
155 157 171 41 9 347 281 187 192 202 158 149 164 167 100 81 69 42 7 42 156 184 180 185 200 210 209 212 218 217 203 198 200 222 222 221 192 217 250 249 245 236 234 226
132 93 142 204 315 306 198 70 355 268 162 143 116 104 128 94 62 52 46 79 132 159 182 195 202 207 214 225 221 220 224 212 205 205 206 202 215 244 272 273 247 224 224 229
117 154 199 2 277 235 1 331 338 131 141 122 125 123 116 106 69 47 47 73 127 160 181 201 209 215 217 227 225 220 209 194 205 217 240 237 234 233 240 267 237 219 207 213
211 356 282 65 331 320 304 304 6 157 166 164 154 144 138 149 157 127 101 104 114 132 152 173 195 216 228 233 229 228 226 222 239 264 261 259 245 238 230 230 221 210 200 204
260 119 296 28 347 341 343 313 65 115 158 170 166 161 158 159 159 146 142 136 133 147 156 177 180 184 208 227 232 239 245 247 263 280 274 258 228 228 233 212 207 203 199 202
281 255 277 116 23 18 89 102 105 108 136 158 163 152 154 159 167 168 170 166 169 220 207 182 166 179 194 215 230 236 242 248 252 254 207 207 196 190 199 197 204 199 197 203
316 291 274 138 112 110 124 115 112 121 125 133 142 144 159 170 172 163 157 160 138 107 65 207 194 209 226 222 217 221 220 212 174 157 166 175 181 182 181 190 183 206 190 204
314 117 179 178 123 95 97 116 134 134 127 146 154 187 200 190 172 159 158 156 89 27 23 14 338 250 233 227 220 211 188 167 156 157 162 166 178 183 192 178 180 179 183 186
165 133 71 146 131 128 120 110 119 151 139 168 212 222 216 240 255 221 175 87 343 348 353 346 342 304 275 234 213 196 178 166 163 167 167 170 174 170 165 169 175 177 177 185
228 225 288 208 183 149 117 111 100 32 353 321 290 284 277 323 269 252 286 296 310 331 329 335 326 312 273 216 195 182 174 172 167 164 168 171 171 167 169 171 168 168 165 165
273 231 222 214 204 146 106 61 24 6 352 343 337 311 290 296 295 292 296 290 283 305 315 312 309 278 241 216 194 180 176 177 173 169 169 169 164 158 151 142 135 131 130 132
247 217 207 210 211 210 222 302 330 331 329 329 322 316 313 312 307 296 289 283 268 285 295 320 294 262 241 215 196 184 173 163 159 155 149 145 143 141 138 135 134 135 133 136
225 216 221 225 231 241 259 275 292 305 310 316 317 321 321 316 307 301 296 262 263 270 281 280 259 243 235 219 189 175 169 164 159 157 155 152 152 151 152 154 156 160 170 176
76 78 104 225 251 264 277 284 288 290 292 292 293 296 302 306 307 303 285 273 274 286 281 241 239 235 228 211 188 180 179 175 173 172 171 171 171 174 179 186 201 213 223 234
339 324 310 298 293 289 285 283 283 281 280 283 287 288 289 294 302 301 294 287 272 273 236 222 238 239 229 197 191 189 191 193 189 190 191 192 197 203 207 207 217 229 241 253
313 304 297 290 284 278 275 277 279 278 278 277 276 276 279 282 286 293 289 285 277 269 237 231 234 240 223 199 197 206 211 206 206 202 202 206 214 219 227 231 242 242 246 258
318 310 303 295 288 284 282 279 276 276 277 278 276 273 268 269 277 280 280 276 271 260 243 237 238 238 222 203 207 216 214 210 208 210 215 228 233 235 236 242 247 241 270 277
314 313 314 313 303 291 286 285 282 281 283 283 281 277 269 263 263 270 272 268 268 250 243 235 231 231 207 205 214 220 218 217 211 215 228 235 241 237 244 242 239 257 261 269
327 332 321 315 299 289 287 288 283 286 288 286 285 283 281 270 262 258 264 266 257 236 230 229 223 214 204 208 219 224 216 212 217 215 243 229 227 219 243 266 260 275 264 245
324 322 332 345 349 337 301 300 319 329 327 324 320 303 293 267 248 248 256 258 245 233 232 220 218 210 207 210 201 187 190 188 198 199 209 214 212 258 266 266 266 254 248 243
352 330 337 345 335 329 312 313 317 325 338 338 343 340 351 289 236 240 249 243 234 228 224 217 207 205 200 186 183 174 178 177 202 198 207 243 263 252 232 225 235 246 250 253
20 12 17 21 32 21 15 4 2 29 11 20 43 62 67 67 61 62 61 233 207 193 195 198 196 183 174 179 197 217 236 196 180 203 198 219 195 177 197 229 257 264 265 266
Wind_Speed_850mb
7 6 6 10 19 18 12 13 11 13 13 7 10 5 10 11 6 9 11 8 8 23 32 38 30 23 21 20 37 29 24 21 18 13 10 11 13 15 16 15 14 15 16 16
8 10 17 12 15 15 4 12 5 7 8 11 8 15 18 8 3 6 5 4 8 26 36 39 36 29 28 35 44 31 27 24 21 17 10 6 6 9 12 13 11 10 12 12
10 5 15 11 19 17 8 10 8 11 5 7 9 14 12 7 6 9 8 3 5 18 33 40 39 30 29 35 42 30 20 22 21 17 12 7 2 5 5 9 7 4 5 10
7 11 14 6 4 6 8 11 16 5 3 10 26 20 8 6 3 8 10 5 7 8 33 35 36 32 29 34 37 32 20 16 19 18 12 10 17 16 2 10 3 3 4 5
9 10 3 3 7 8 9 8 11 7 9 21 24 30 24 16 10 9 10 1 11 14 27 32 34 33 28 35 32 28 22 17 18 18 14 12 3 16 12 12 12 12 11 8
6 8 8 5 7 6 5 5 10 14 15 27 18 8 9 10 11 12 10 3 8 19 34 34 33 34 35 31 31 33 34 31 34 26 18 20 13 25 24 22 19 17 13 11
6 4 2 1 7 9 10 5 23 2 10 19 8 13 15 11 13 15 16 8 15 20 28 32 35 35 38 39 33 35 41 38 35 34 32 35 27 24 18 22 17 21 15 13
4 3 8 20 6 6 6 9 13 6 18 29 31 24 18 11 6 9 10 13 12 15 19 26 28 38 41 33 33 35 34 26 23 21 29 43 49 45 21 22 20 24 20 14
4 1 1 3 7 15 10 12 7 8 23 27 28 20 16 12 7 5 3 5 7 10 9 9 13 21 34 36 31 30 31 31 24 22 24 28 35 43 44 39 31 33 26 16
6 5 2 10 7 12 3 3 4 14 19 24 25 24 23 19 13 11 11 8 6 6 9 7 7 8 13 19 27 29 29 27 27 28 26 22 25 25 22 50 41 37 28 17
7 5 4 5 6 5 6 12 16 20 17 22 24 26 23 23 22 19 15 12 6 3 6 8 9 8 10 14 18 23 24 22 20 16 10 10 20 24 29 42 29 27 23 18
3 5 2 4 5 9 10 14 18 20 26 24 20 19 19 19 17 14 12 9 7 7 3 4 5 10 14 18 21 22 20 16 12 15 17 13 15 25 35 32 29 27 22 15
3 3 5 7 8 12 13 15 18 20 13 12 11 8 13 14 15 14 12 6 3 10 13 11 4 4 10 14 15 15 17 19 21 21 20 18 25 28 27 32 26 22 16 13
6 7 4 5 7 10 11 9 7 2 3 6 3 6 8 4 7 6 1 0 4 7 10 14 13 9 12 11 11 17 19 21 24 24 24 24 23 21 21 20 21 19 15 13
13 16 9 7 8 6 7 8 5 3 6 7 9 9 12 15 11 10 9 8 8 10 16 19 16 13 9 10 14 16 21 26 28 27 27 26 26 25 23 21 19 17 14 13
17 21 15 12 8 5 6 8 11 16 18 19 18 13 19 22 20 21 17 15 14 15 20 20 16 12 11 10 16 22 28 29 29 30 31 29 27 28 30 32 31 28 24 19
19 24 21 19 15 8 5 5 11 17 21 23 26 29 31 25 23 26 24 19 16 18 19 18 13 11 15 12 18 25 29 32 32 31 37 43 46 43 39 35 32 27 23 20
12 16 14 14 12 11 9 9 12 14 18 22 25 27 29 32 30 24 18 15 17 18 16 12 12 14 17 17 25 33 36 35 37 34 42 44 42 38 32 27 23 19 16 14
13 8 3 3 7 10 13 16 17 18 20 24 27 28 30 30 29 25 18 17 19 17 12 14 14 18 20 24 34 39 38 36 38 38 40 37 33 28 24 20 17 17 18 21
13 12 13 16 19 22 27 29 32 32 29 30 31 32 33 32 28 26 25 27 23 15 12 13 9 16 19 32 40 40 38 37 38 37 38 35 30 25 19 18 18 18 17 19
30 31 33 36 38 39 41 43 45 47 46 42 41 41 41 39 36 34 31 31 29 23 20 19 18 15 22 35 39 37 36 37 42 39 38 35 30 26 24 22 26 20 19 23
27 30 34 39 43 47 47 47 48 50 50 50 48 47 50 50 45 37 33 30 26 22 27 28 24 24 26 35 33 34 37 39 42 42 37 33 33 33 30 30 27 22 22 25
23 21 24 26 29 33 35 30 30 33 38 40 44 46 48 52 53 46 39 31 27 29 30 31 31 27 35 36 32 34 39 40 43 42 32 23 30 32 30 25 24 23 30 31
15 18 22 24 26 25 24 23 26 30 33 37 40 41 45 46 49 47 41 36 30 30 36 36 35 31 39 37 34 37 42 42 39 24 26 37 28 22 21 20 21 22 28 22
15 18 15 16 19 13 11 15 16 17 23 24 25 26 25 24 31 34 31 28 26 31 38 38 37 37 40 34 26 21 30 28 24 26 18 20 17 14 17 19 18 22 19 20
13 12 11 18 18 13 13 13 19 23 24 19 19 11 6 3 6 13 21 25 25 29 33 38 40 41 44 43 29 35 39 31 18 21 21 25 33 31 18 12 16 15 17 19
14 14 8 9 8 10 10 12 14 12 18 15 14 19 20 20 14 8 2 3 8 15 22 32 31 33 29 30 33 29 26 26 28 15 8 7 6 9 12 12 14 20 24 27
Wind_Direction_850mb
193 199 215 193 175 178 193 164 196 164 208 288 24 26 132 164 132 91 70 71 176 184 184 180 180 195 188 184 166 146 153 163 173 159 140 113 92 91 86 78 78 75 70 70
163 179 201 206 194 190 206 167 135 158 240 41 78 110 121 141 42 37 60 90 160 184 183 182 181 194 191 190 183 167 161 175 178 172 171 138 113 104 89 72 64 72 78 72
183 167 158 202 196 184 170 198 170 199 82 51 113 115 117 115 86 43 17 347 228 202 192 184 189 191 203 200 190 191 185 188 195 182 144 144 158 83 80 89 63 70 92 93
129 156 196 77 342 224 220 220 215 293 356 99 121 109 103 109 97 48 22 15 188 194 197 192 198 199 204 202 197 201 200 212 205 187 178 225 237 220 292 348 283 233 190 136
166 185 358 168 154 162 196 198 203 212 149 129 140 123 91 88 59 15 3 225 210 194 189 192 200 204 202 207 208 205 197 173 221 217 227 247 67 242 215 293 260 241 232 206
155 157 171 41 9 347 281 187 192 202 158 149 164 167 100 81 69 42 7 42 156 184 180 185 200 210 209 212 218 217 203 198 200 222 222 221 192 217 250 249 245 236 234 226
132 93 142 204 315 306 198 70 355 268 162 143 116 104 128 94 62 52 46 79 132 159 182 195 202 207 214 225 221 220 224 212 205 205 206 202 215 244 272 273 247 224 224 229
117 154 199 2 277 235 1 331 338 131 141 122 125 123 116 106 69 47 47 73 127 160 181 201 209 215 217 227 225 220 209 194 205 217 240 237 234 233 240 267 237 219 207 213
211 356 282 65 331 320 304 304 6 157 166 164 154 144 138 149 157 127 101 104 114 132 152 173 195 216 228 233 229 228 226 222 239 264 261 259 245 238 230 230 221 210 200 204
260 119 296 28 347 341 343 313 65 115 158 170 166 161 158 159 159 146 142 136 133 147 156 177 180 184 208 227 232 239 245 247 263 280 274 258 228 228 233 212 207 203 199 202
281 255 277 116 23 18 89 102 105 108 136 158 163 152 154 159 167 168 170 166 169 220 207 182 166 179 194 215 230 236 242 248 252 254 207 207 196 190 199 197 204 199 197 203
316 291 274 138 112 110 124 115 112 121 125 133 142 144 159 170 172 163 157 160 138 107 65 207 194 209 226 222 217 221 220 212 174 157 166 175 181 182 181 190 183 206 190 204
314 117 179 178 123 95 97 116 134 134 127 146 154 187 200 190 172 159 158 156 89 27 23 14 338 250 233 227 220 211 188 167 156 157 162 166 178 183 192 178 180 179 183 186
165 133 71 146 131 128 120 110 119 151 139 168 212 222 216 240 255 221 175 87 343 348 353 346 342 304 275 234 213 196 178 166 163 167 167 170 174 170 165 169 175 177 177 185
228 225 288 208 183 149 117 111 100 32 353 321 290 284 277 323 269 252 286 296 310 331 329 335 326 312 273 216 195 182 174 172 167 164 168 171 171 167 169 171 168 168 165 165
273 231 222 214 204 146 106 61 24 6 352 343 337 311 290 296 295 292 296 290 283 305 315 312 309 278 241 216 194 180 176 177 173 169 169 169 164 158 151 142 135 131 130 132
247 217 207 210 211 210 222 302 330 331 329 329 322 316 313 312 307 296 289 283 268 285 295 320 294 262 241 215 196 184 173 163 159 155 149 145 143 141 138 135 134 135 133 136
225 216 221 225 231 241 259 275 292 305 310 316 317 321 321 316 307 301 296 262 263 270 281 280 259 243 235 219 189 175 169 164 159 157 155 152 152 151 152 154 156 160 170 176
76 78 104 225 251 264 277 284 288 290 292 292 293 296 302 306 307 303 285 273 274 286 281 241 239 235 228 211 188 180 179 175 173 172 171 171 171 174 179 186 201 213 223 234
339 324 310 298 293 289 285 283 283 281 280 283 287 288 289 294 302 301 294 287 272 273 236 222 238 239 229 197 191 189 191 193 189 190 191 192 197 203 207 207 217 229 241 253
313 304 297 290 284 278 275 277 279 278 278 277 276 276 279 282 286 293 289 285 277 269 237 231 234 240 223 199 197 206 211 206 206 202 202 206 214 219 227 231 242 242 246 258
318 310 303 295 288 284 282 279 276 276 277 278 276 273 268 269 277 280 280 276 271 260 243 237 238 238 222 203 207 216 214 210 208 210 215 228 233 235 236 242 247 241 270 277
314 313 314 313 303 291 286 285 282 281 283 283 281 277 269 263 263 270 272 268 268 250 243 235 231 231 207 205 214 220 218 217 211 215 228 235 241 237 244 242 239 257 261 269
327 332 321 315 299 289 287 288 283 286 288 286 285 283 281 270 262 258 264 266 257 236 230 229 223 214 204 208 219 224 216 212 217 215 243 229 227 219 243 266 260 275 264 245
324 322 332 345 349 337 301 300 319 329 327 324 320 303 293 267 248 248 256 258 245 233 232 220 218 210 207 210 201 187 190 188 198 199 209 214 212 258 266 266 266 254 248 243
352 330 337 345 335 329 312 313 317 325 338 338 343 340 351 289 236 240 249 243 234 228 224 217 207 205 200 186 183 174 178 177 202 198 207 243 263 252 232 225 235 246 250 253
20 12 17 21 32 21 15 4 2 29 11 20 43 62 67 67 61 62 61 233 207 193 195 198 196 183 174 179 197 217 236 196 180 203 198 219 195 177 197 229 257 264 265 266